QPF
0.00 0.00 0.00 0.00 0.00 0.00 0.00 0.00 0.00 0.00 0.00 0.00 0.00 0.00 0.00 0.00 0.00 0.00 0.00 0.00 0.00 0.00 0.00 0.00 0.00 0.00 0.00 0.00 0.00 0.00 0.00 0.00 0.00 0.00 0.00 0.00 0.00 0.00 0.00 0.00 0.00 0.00 0.00 0.00
0.00 0.00 0.00 0.00 0.00 0.00 0.00 0.00 0.00 0.00 0.00 0.00 0.00 0.00 0.00 0.00 0.00 0.00 0.00 0.00 0.00 0.00 0.00 0.00 0.00 0.00 0.00 0.00 0.00 0.00 0.00 0.00 0.00 0.00 0.00 0.00 0.00 0.00 0.00 0.00 0.00 0.00 0.00 0.00
0.00 0.00 0.00 0.00 0.00 0.00 0.00 0.00 0.00 0.00 0.00 0.00 0.00 0.00 0.00 0.00 0.00 0.00 0.00 0.00 0.00 0.00 0.00 0.00 0.00 0.00 0.00 0.00 0.00 0.00 0.00 0.00 0.00 0.00 0.00 0.00 0.00 0.00 0.00 0.00 0.00 0.00 0.00 0.00
0.00 0.00 0.00 0.00 0.00 0.00 0.00 0.00 0.00 0.00 0.00 0.00 0.00 0.00 0.00 0.00 0.00 0.00 0.00 0.00 0.00 0.00 0.00 0.00 0.00 0.00 0.00 0.00 0.00 0.00 0.00 0.00 0.00 0.00 0.00 0.00 0.00 0.00 0.00 0.00 0.00 0.00 0.00 0.00
0.00 0.00 0.00 0.00 0.00 0.00 0.00 0.00 0.00 0.00 0.00 0.00 0.00 0.00 0.00 0.00 0.00 0.00 0.00 0.00 0.00 0.00 0.00 0.00 0.00 0.00 0.00 0.00 0.00 0.00 0.00 0.00 0.00 0.00 0.00 0.00 0.00 0.00 0.00 0.00 0.00 0.00 0.00 0.00
0.00 0.00 0.00 0.00 0.00 0.00 0.00 0.00 0.00 0.00 0.00 0.00 0.00 0.00 0.00 0.00 0.00 0.00 0.00 0.00 0.00 0.00 0.00 0.00 0.00 0.00 0.00 0.00 0.00 0.00 0.00 0.00 0.00 0.00 0.00 0.00 0.00 0.00 0.00 0.00 0.00 0.00 0.00 0.00
0.00 0.00 0.00 0.00 0.00 0.00 0.00 0.00 0.00 0.00 0.00 0.00 0.00 0.00 0.00 0.00 0.00 0.00 0.00 0.00 0.00 0.00 0.00 0.00 0.00 0.00 0.00 0.00 0.00 0.00 0.00 0.00 0.00 0.00 0.00 0.00 0.00 0.00 0.00 0.00 0.00 0.00 0.00 0.00
0.00 0.00 0.00 0.00 0.00 0.00 0.00 0.00 0.00 0.00 0.00 0.00 0.00 0.00 0.00 0.00 0.00 0.00 0.00 0.00 0.00 0.00 0.00 0.00 0.00 0.00 0.00 0.00 0.00 0.00 0.00 0.00 0.00 0.00 0.00 0.00 0.00 0.00 0.00 0.00 0.00 0.00 0.00 0.00
0.00 0.00 0.00 0.00 0.00 0.00 0.00 0.00 0.00 0.00 0.00 0.00 0.00 0.00 0.00 0.00 0.00 0.00 0.00 0.00 0.00 0.00 0.00 0.00 0.00 0.00 0.00 0.00 0.00 0.00 0.00 0.00 0.00 0.00 0.00 0.00 0.00 0.00 0.00 0.00 0.00 0.00 0.00 0.00
0.00 0.00 0.00 0.00 0.00 0.00 0.00 0.00 0.00 0.00 0.00 0.00 0.00 0.00 0.00 0.00 0.00 0.00 0.00 0.00 0.00 0.00 0.00 0.00 0.00 0.00 0.00 0.00 0.00 0.00 0.00 0.00 0.00 0.00 0.00 0.00 0.00 0.00 0.00 0.00 0.00 0.00 0.00 0.00
0.00 0.00 0.00 0.00 0.00 0.00 0.00 0.00 0.00 0.00 0.00 0.00 0.00 0.00 0.00 0.00 0.00 0.00 0.00 0.00 0.00 0.00 0.00 0.00 0.00 0.00 0.00 0.00 0.00 0.00 0.00 0.00 0.00 0.00 0.00 0.00 0.00 0.00 0.00 0.00 0.00 0.00 0.00 0.00
0.00 0.00 0.00 0.00 0.00 0.00 0.00 0.00 0.00 0.00 0.00 0.00 0.00 0.00 0.00 0.00 0.00 0.00 0.00 0.00 0.00 0.00 0.00 0.00 0.00 0.00 0.00 0.00 0.00 0.00 0.00 0.00 0.00 0.00 0.00 0.00 0.00 0.00 0.00 0.00 0.00 0.00 0.00 0.00
0.00 0.00 0.00 0.00 0.00 0.00 0.00 0.00 0.00 0.00 0.00 0.00 0.00 0.00 0.00 0.00 0.00 0.00 0.00 0.00 0.00 0.00 0.00 0.00 0.00 0.00 0.00 0.00 0.00 0.00 0.00 0.00 0.00 0.00 0.00 0.00 0.00 0.00 0.00 0.00 0.00 0.00 0.00 0.00
0.00 0.00 0.00 0.00 0.00 0.00 0.00 0.00 0.00 0.00 0.00 0.00 0.00 0.00 0.00 0.00 0.00 0.00 0.00 0.00 0.00 0.00 0.00 0.00 0.00 0.00 0.00 0.00 0.00 0.00 0.00 0.00 0.00 0.00 0.00 0.00 0.00 0.00 0.00 0.00 0.00 0.00 0.00 0.00
0.00 0.00 0.00 0.00 0.00 0.00 0.00 0.00 0.00 0.00 0.00 0.00 0.00 0.00 0.00 0.00 0.00 0.00 0.00 0.00 0.00 0.00 0.00 0.00 0.00 0.00 0.00 0.00 0.00 0.00 0.00 0.00 0.00 0.00 0.00 0.00 0.00 0.00 0.00 0.00 0.00 0.00 0.00 0.00
0.00 0.00 0.00 0.00 0.00 0.00 0.00 0.00 0.00 0.00 0.00 0.00 0.00 0.00 0.00 0.00 0.00 0.00 0.00 0.00 0.00 0.00 0.00 0.00 0.00 0.00 0.00 0.00 0.00 0.00 0.00 0.00 0.00 0.00 0.00 0.00 0.01 0.01 0.01 0.00 0.00 0.00 0.00 0.00
0.00 0.00 0.00 0.00 0.00 0.00 0.00 0.00 0.00 0.00 0.00 0.00 0.00 0.00 0.00 0.00 0.00 0.00 0.00 0.00 0.00 0.00 0.00 0.00 0.00 0.00 0.00 0.00 0.00 0.01 0.01 0.01 0.01 0.00 0.00 0.00 0.03 0.04 0.04 0.03 0.02 0.02 0.00 0.00
0.00 0.00 0.00 0.00 0.00 0.00 0.00 0.00 0.00 0.00 0.00 0.00 0.00 0.00 0.00 0.00 0.00 0.00 0.00 0.00 0.00 0.00 0.00 0.00 0.00 0.00 0.00 0.00 0.00 0.02 0.04 0.05 0.03 0.00 0.02 0.04 0.10 0.10 0.07 0.05 0.04 0.02 0.01 0.01
0.00 0.00 0.00 0.00 0.00 0.00 0.00 0.00 0.00 0.00 0.00 0.00 0.00 0.00 0.00 0.00 0.00 0.00 0.00 0.00 0.00 0.00 0.00 0.00 0.00 0.00 0.00 0.00 0.00 0.01 0.03 0.07 0.05 0.01 0.01 0.04 0.09 0.13 0.12 0.10 0.07 0.05 0.04 0.02
0.00 0.00 0.00 0.00 0.00 0.00 0.00 0.00 0.00 0.00 0.00 0.00 0.00 0.00 0.00 0.00 0.00 0.00 0.00 0.00 0.00 0.00 0.00 0.00 0.00 0.00 0.00 0.00 0.00 0.00 0.02 0.08 0.08 0.03 0.04 0.04 0.03 0.07 0.08 0.06 0.06 0.08 0.11 0.10
0.00 0.00 0.00 0.00 0.00 0.00 0.00 0.00 0.00 0.00 0.00 0.00 0.00 0.00 0.00 0.00 0.00 0.00 0.00 0.00 0.00 0.00 0.00 0.00 0.00 0.00 0.00 0.00 0.00 0.00 0.01 0.04 0.11 0.13 0.14 0.16 0.18 0.15 0.12 0.13 0.14 0.16 0.15 0.14
0.00 0.00 0.00 0.00 0.00 0.01 0.00 0.00 0.00 0.00 0.00 0.00 0.00 0.00 0.00 0.00 0.00 0.00 0.00 0.00 0.00 0.00 0.00 0.00 0.00 0.00 0.00 0.00 0.00 0.00 0.01 0.03 0.03 0.10 0.22 0.13 0.12 0.09 0.11 0.19 0.19 0.16 0.14 0.11
0.00 0.00 0.00 0.00 0.00 0.00 0.00 0.00 0.00 0.00 0.01 0.01 0.01 0.00 0.01 0.00 0.00 0.00 0.00 0.00 0.01 0.02 0.01 0.00 0.00 0.00 0.00 0.00 0.00 0.00 0.00 0.01 0.02 0.03 0.09 0.08 0.05 0.05 0.06 0.07 0.08 0.03 0.03 0.05
0.00 0.00 0.00 0.00 0.00 0.00 0.00 0.00 0.00 0.01 0.02 0.02 0.03 0.03 0.02 0.01 0.01 0.03 0.05 0.06 0.08 0.05 0.00 0.00 0.00 0.00 0.00 0.00 0.01 0.00 0.00 0.01 0.03 0.05 0.03 0.03 0.05 0.04 0.05 0.06 0.04 0.04 0.04 0.01
0.00 0.00 0.00 0.00 0.00 0.00 0.00 0.00 0.01 0.01 0.01 0.02 0.02 0.04 0.12 0.16 0.19 0.17 0.12 0.08 0.05 0.01 0.00 0.00 0.00 0.00 0.00 0.00 0.02 0.03 0.03 0.03 0.04 0.03 0.04 0.04 0.04 0.04 0.03 0.06 0.06 0.03 0.04 0.03
0.00 0.00 0.00 0.00 0.00 0.00 0.00 0.00 0.01 0.00 0.01 0.02 0.02 0.04 0.04 0.02 0.04 0.01 0.00 0.00 0.00 0.00 0.00 0.00 0.00 0.00 0.00 0.00 0.01 0.01 0.02 0.06 0.06 0.05 0.02 0.02 0.02 0.02 0.01 0.00 0.00 0.00 0.00 0.00
MSLP
1003.62 1002.93 1001.90 1001.91 1002.61 1003.04 1002.69 1002.47 1002.33 1003.78 1004.69 1004.26 1003.20 1003.16 1002.81 1003.94 1004.17 1004.32 1004.99 1005.96 1006.63 1007.17 1007.80 1008.77 1009.61 1010.39 1010.97 1011.83 1012.74 1013.57 1014.16 1014.74 1015.39 1015.62 1015.93 1015.78 1015.73 1015.86 1015.91 1015.92 1016.37 1017.01 1017.32 1017.76
1003.33 1002.83 1002.09 1003.01 1003.62 1003.35 1002.84 1002.42 1002.08 1002.57 1003.85 1003.96 1003.28 1001.92 1001.54 1002.34 1003.21 1003.29 1004.05 1004.82 1005.69 1006.36 1007.02 1007.97 1009.03 1009.81 1010.56 1011.43 1012.38 1013.27 1013.88 1014.55 1015.13 1015.30 1015.37 1015.23 1015.71 1015.22 1015.23 1015.55 1016.29 1016.91 1017.30 1017.38
1002.98 1003.08 1003.45 1003.98 1003.73 1003.38 1002.73 1002.32 1002.20 1002.55 1002.69 1002.51 1001.97 1001.10 1000.79 1001.24 1002.18 1002.86 1003.36 1004.04 1004.74 1005.37 1006.26 1007.35 1008.36 1009.23 1010.01 1010.82 1011.87 1012.71 1013.51 1014.12 1014.69 1014.66 1015.03 1015.25 1015.70 1015.61 1015.37 1015.26 1015.95 1016.63 1017.00 1017.24
1003.21 1004.07 1004.27 1004.39 1003.97 1003.68 1002.82 1003.07 1003.37 1003.25 1002.76 1001.49 1001.21 1000.22 1000.06 1000.62 1001.07 1001.89 1002.55 1003.05 1003.89 1004.69 1005.55 1006.37 1007.53 1008.56 1009.27 1010.04 1011.08 1011.99 1013.01 1013.61 1014.19 1014.49 1014.29 1014.68 1014.89 1014.80 1015.24 1015.09 1015.21 1015.81 1016.66 1016.94
1003.89 1004.50 1004.59 1004.48 1004.01 1004.75 1003.78 1004.09 1003.94 1003.39 1002.60 1001.69 1000.74 1000.22 999.20 999.82 999.82 1000.35 1000.83 1001.66 1002.65 1003.56 1004.64 1005.39 1006.31 1007.42 1008.41 1009.17 1009.99 1011.03 1012.20 1013.02 1013.46 1014.01 1013.98 1014.29 1014.49 1014.24 1014.26 1014.38 1014.69 1015.59 1016.10 1016.53
1004.53 1005.66 1005.47 1005.04 1005.30 1005.39 1005.04 1004.48 1003.52 1002.79 1002.10 1000.70 1000.13 999.79 998.58 998.56 999.15 1000.03 1000.96 1001.74 1002.00 1002.82 1003.71 1004.57 1005.39 1006.36 1007.41 1008.29 1008.99 1009.88 1011.14 1012.20 1012.88 1013.39 1013.97 1013.87 1014.00 1013.84 1013.59 1013.97 1014.12 1014.90 1015.24 1015.96
1005.37 1005.34 1005.90 1006.24 1005.36 1005.01 1004.96 1003.52 1002.12 1000.98 1000.39 999.44 998.81 998.99 999.00 999.80 1000.33 1001.59 1002.08 1002.77 1003.39 1003.41 1003.17 1003.68 1004.59 1005.42 1006.32 1007.29 1008.09 1008.84 1009.94 1011.24 1012.11 1012.55 1012.98 1013.58 1013.73 1013.91 1013.63 1013.63 1013.97 1013.96 1014.38 1014.64
1004.62 1004.90 1005.74 1006.38 1006.02 1005.44 1005.11 1004.41 1002.78 1001.03 999.61 998.82 999.39 999.27 999.20 1000.58 1001.93 1002.73 1003.29 1004.06 1004.74 1004.69 1004.49 1004.30 1003.89 1004.22 1005.36 1006.20 1007.13 1007.91 1008.63 1009.90 1011.15 1011.82 1012.26 1012.74 1013.18 1013.30 1013.52 1013.35 1013.14 1013.56 1013.43 1013.73
1005.13 1005.26 1006.54 1006.93 1006.98 1006.68 1005.33 1004.71 1003.64 1003.05 1001.73 1000.70 999.56 999.66 1000.70 1001.47 1002.59 1003.45 1004.00 1004.89 1005.61 1005.85 1005.73 1005.57 1005.24 1005.02 1005.04 1004.96 1005.75 1006.81 1007.67 1008.70 1009.66 1010.59 1011.25 1011.84 1012.38 1012.67 1012.46 1012.71 1013.19 1013.12 1013.30 1012.97
1006.85 1006.52 1006.29 1006.77 1007.42 1006.92 1006.58 1005.95 1004.53 1003.43 1002.08 1000.77 999.75 999.44 999.49 1000.89 1002.63 1004.05 1004.76 1005.36 1006.08 1006.26 1006.37 1006.41 1006.16 1005.98 1006.12 1005.37 1004.28 1005.16 1006.31 1007.26 1008.58 1009.59 1010.15 1010.82 1011.39 1011.95 1012.24 1012.29 1012.40 1012.71 1012.68 1013.07
1007.77 1007.47 1006.68 1007.45 1006.47 1005.84 1006.11 1005.98 1005.64 1004.70 1003.34 1001.80 1000.76 1000.04 1000.68 1002.01 1003.61 1004.68 1005.45 1006.05 1006.65 1006.89 1006.94 1006.95 1006.94 1006.67 1006.44 1005.67 1004.48 1003.23 1004.78 1006.04 1007.15 1008.43 1009.11 1009.86 1010.46 1010.98 1011.56 1011.77 1011.96 1012.14 1012.49 1012.54
1008.99 1008.08 1006.68 1006.07 1006.30 1007.36 1007.22 1006.56 1005.74 1004.45 1003.95 1003.17 1002.42 1001.26 1001.70 1003.28 1004.14 1004.95 1005.85 1006.87 1007.39 1007.51 1007.52 1007.43 1007.21 1007.22 1007.04 1006.18 1004.68 1002.60 1003.61 1004.86 1005.90 1007.18 1008.39 1008.84 1009.61 1010.21 1010.44 1010.91 1011.22 1011.58 1011.89 1012.25
1010.23 1008.85 1007.43 1006.49 1006.48 1007.24 1007.41 1006.79 1006.52 1005.87 1005.12 1004.13 1003.38 1002.11 1002.56 1003.68 1004.63 1005.11 1006.29 1007.16 1007.60 1007.76 1007.77 1007.87 1007.76 1007.71 1007.59 1007.29 1006.41 1005.07 1003.53 1004.19 1005.07 1006.21 1007.27 1008.07 1008.43 1008.94 1009.43 1009.76 1010.40 1010.75 1011.11 1011.46
1012.21 1010.22 1009.18 1007.93 1006.93 1007.42 1007.38 1007.22 1006.99 1006.87 1005.86 1004.77 1003.93 1003.54 1003.35 1003.76 1004.55 1005.52 1006.61 1007.51 1008.07 1008.21 1008.19 1008.10 1008.34 1008.28 1008.27 1008.11 1007.83 1006.80 1005.05 1004.16 1004.52 1005.27 1006.28 1007.10 1007.45 1007.70 1008.16 1008.88 1009.46 1010.03 1010.34 1010.72
1011.98 1010.68 1010.04 1009.37 1008.95 1008.53 1008.12 1007.81 1007.53 1007.18 1006.96 1006.46 1005.58 1005.22 1005.27 1005.57 1005.94 1006.51 1007.17 1007.91 1008.42 1008.62 1008.76 1008.62 1008.69 1008.86 1008.69 1008.47 1008.59 1007.95 1006.53 1005.12 1004.70 1004.83 1005.21 1005.96 1006.69 1007.20 1007.52 1007.81 1008.33 1008.85 1009.51 1009.85
1011.56 1011.20 1011.16 1010.28 1009.84 1009.22 1008.59 1008.37 1008.18 1007.91 1007.78 1007.45 1007.02 1006.62 1006.95 1006.94 1006.87 1007.27 1007.99 1008.58 1008.78 1008.80 1008.99 1008.97 1009.60 1009.67 1009.28 1008.70 1008.59 1008.87 1007.88 1006.43 1005.84 1005.27 1005.00 1005.26 1006.01 1006.67 1007.07 1007.30 1007.52 1008.10 1008.54 1009.03
1011.62 1011.48 1011.31 1010.22 1009.80 1009.19 1008.96 1008.34 1008.15 1007.93 1008.09 1007.91 1007.24 1007.19 1007.43 1008.17 1008.85 1009.40 1009.63 1009.61 1009.34 1008.86 1009.04 1009.44 1009.77 1009.94 1009.72 1009.06 1008.65 1008.64 1008.52 1007.72 1006.34 1005.96 1005.62 1005.38 1005.40 1006.15 1006.94 1007.19 1007.23 1007.62 1007.79 1008.22
1011.91 1012.32 1012.06 1010.95 1010.53 1009.29 1008.49 1009.04 1009.28 1009.28 1009.19 1009.11 1008.83 1008.83 1009.20 1010.04 1010.49 1010.60 1010.91 1010.25 1009.68 1009.21 1009.43 1009.95 1009.84 1009.81 1009.70 1009.39 1009.10 1008.51 1008.60 1007.83 1007.05 1005.97 1006.04 1006.04 1005.72 1006.18 1006.92 1007.21 1007.09 1007.21 1007.26 1007.30
1012.20 1012.39 1011.57 1011.10 1010.12 1009.37 1009.25 1009.63 1010.66 1011.00 1010.87 1011.05 1010.64 1010.47 1010.74 1011.16 1011.24 1011.03 1010.31 1010.24 1010.55 1010.54 1010.33 1009.81 1009.67 1009.52 1009.34 1009.13 1008.97 1008.56 1007.99 1007.72 1006.86 1005.90 1006.13 1006.32 1006.00 1005.66 1006.83 1006.83 1007.00 1007.01 1006.97 1006.89
1012.46 1013.15 1012.99 1011.65 1011.00 1010.33 1010.10 1010.94 1011.76 1012.30 1011.52 1012.15 1012.31 1012.25 1012.06 1012.01 1011.18 1010.38 1010.26 1010.50 1010.45 1010.42 1010.14 1009.62 1009.36 1009.29 1008.98 1008.66 1008.32 1008.22 1007.44 1007.23 1006.22 1005.72 1005.32 1005.38 1005.81 1005.70 1006.91 1006.36 1006.44 1006.88 1007.22 1007.46
1012.14 1012.64 1012.04 1011.30 1010.93 1010.78 1011.44 1012.17 1012.48 1012.66 1012.46 1012.83 1013.12 1012.95 1012.69 1012.50 1012.23 1011.26 1011.12 1010.65 1010.51 1010.32 1009.90 1009.31 1009.34 1008.97 1009.21 1008.30 1007.64 1007.41 1006.81 1006.20 1005.82 1005.35 1005.02 1005.22 1005.47 1005.89 1006.13 1006.06 1006.39 1006.52 1006.93 1007.22
1012.40 1012.00 1011.27 1010.96 1010.83 1011.48 1012.78 1012.79 1013.03 1013.14 1013.19 1013.60 1013.82 1013.84 1013.38 1013.05 1012.24 1011.57 1011.15 1010.51 1009.95 1009.69 1009.92 1009.96 1009.42 1009.22 1009.16 1008.66 1008.06 1007.43 1006.68 1006.16 1005.78 1005.12 1004.75 1004.72 1004.98 1005.38 1005.65 1005.87 1005.71 1006.18 1006.83 1006.46
1012.70 1012.55 1012.61 1013.01 1012.07 1012.49 1012.74 1012.89 1013.31 1014.22 1014.75 1014.68 1014.75 1014.77 1014.12 1013.41 1012.69 1012.00 1011.51 1010.89 1009.99 1010.43 1010.76 1010.29 1010.10 1009.82 1009.36 1009.13 1008.90 1008.29 1007.13 1006.39 1005.77 1005.22 1004.98 1005.36 1005.38 1005.43 1005.38 1005.55 1005.75 1006.32 1006.67 1007.05
1012.34 1012.68 1012.96 1013.13 1012.64 1012.54 1012.69 1013.07 1014.15 1015.10 1015.64 1015.88 1015.84 1015.52 1014.71 1014.15 1013.42 1012.62 1012.04 1011.40 1011.42 1011.33 1011.46 1011.31 1011.19 1011.03 1010.27 1009.60 1009.05 1008.73 1007.58 1006.63 1006.09 1005.68 1005.33 1005.58 1005.64 1005.82 1005.92 1006.08 1006.55 1007.01 1007.52 1007.94
1012.26 1012.61 1012.94 1012.65 1012.56 1012.79 1012.70 1013.35 1014.58 1015.63 1016.52 1016.87 1016.94 1016.53 1016.05 1015.61 1014.45 1013.71 1013.91 1013.71 1013.39 1013.33 1013.22 1012.96 1012.76 1012.28 1011.60 1010.45 1009.44 1008.74 1007.63 1006.62 1006.21 1005.80 1005.86 1005.89 1005.76 1005.72 1006.24 1007.11 1007.78 1007.79 1008.57 1009.65
1011.70 1011.81 1012.15 1011.97 1012.35 1012.74 1013.01 1013.82 1015.24 1016.11 1017.08 1017.54 1017.75 1017.72 1017.66 1017.44 1016.63 1016.06 1015.94 1015.33 1015.23 1015.01 1014.37 1013.85 1013.38 1012.98 1012.62 1011.34 1009.79 1008.79 1007.77 1007.05 1006.28 1005.74 1005.53 1005.71 1005.58 1005.99 1006.26 1007.47 1008.51 1009.22 1009.54 1009.44
Thickness
5834 5820 5820 5832 5832 5830 5831 5829 5827 5820 5823 5822 5833 5833 5845 5843 5844 5843 5842 5836 5833 5831 5837 5834 5830 5826 5822 5815 5810 5807 5804 5803 5799 5796 5793 5795 5797 5801 5804 5805 5804 5800 5799 5797
5820 5809 5837 5834 5826 5824 5827 5824 5829 5834 5827 5821 5823 5837 5856 5853 5846 5852 5847 5843 5839 5837 5838 5835 5830 5828 5824 5817 5812 5808 5807 5804 5801 5801 5801 5803 5800 5808 5810 5809 5805 5801 5799 5800
5809 5815 5829 5815 5815 5813 5823 5821 5823 5817 5831 5840 5836 5831 5845 5859 5857 5854 5854 5852 5849 5844 5838 5835 5832 5829 5828 5821 5815 5811 5808 5807 5805 5808 5806 5804 5802 5804 5807 5811 5808 5803 5802 5801
5814 5816 5810 5805 5804 5814 5805 5824 5818 5812 5810 5803 5842 5804 5841 5846 5849 5851 5851 5851 5849 5847 5848 5845 5837 5832 5831 5829 5825 5819 5812 5810 5809 5809 5810 5806 5803 5803 5805 5810 5814 5810 5804 5803
5793 5797 5797 5794 5803 5807 5799 5815 5808 5810 5808 5814 5823 5815 5845 5856 5851 5851 5859 5860 5858 5856 5851 5848 5846 5842 5839 5838 5833 5827 5819 5814 5813 5811 5813 5809 5807 5813 5817 5818 5817 5812 5809 5806
5796 5802 5798 5799 5803 5801 5807 5802 5809 5815 5811 5791 5820 5821 5840 5853 5853 5853 5853 5859 5858 5857 5856 5854 5854 5851 5842 5843 5840 5835 5825 5818 5817 5813 5810 5812 5811 5814 5818 5818 5818 5814 5815 5811
5779 5784 5793 5794 5788 5803 5797 5800 5786 5790 5794 5796 5847 5828 5837 5849 5845 5837 5838 5840 5842 5851 5856 5854 5849 5847 5846 5842 5840 5839 5832 5821 5818 5817 5815 5812 5812 5813 5816 5818 5817 5819 5817 5818
5766 5757 5779 5787 5781 5777 5783 5787 5779 5764 5798 5820 5830 5805 5833 5839 5836 5835 5833 5828 5828 5830 5840 5844 5851 5853 5848 5845 5843 5840 5838 5827 5822 5818 5817 5816 5815 5816 5816 5820 5823 5821 5823 5824
5762 5761 5776 5775 5779 5778 5776 5771 5800 5779 5800 5790 5818 5824 5827 5827 5816 5817 5815 5812 5808 5813 5819 5825 5835 5841 5843 5849 5847 5843 5839 5833 5830 5825 5821 5820 5817 5817 5820 5821 5820 5822 5823 5828
5757 5740 5768 5770 5770 5775 5766 5780 5768 5779 5751 5758 5802 5808 5811 5810 5795 5795 5799 5796 5797 5804 5808 5812 5819 5825 5831 5841 5855 5852 5846 5839 5831 5827 5825 5822 5820 5818 5818 5820 5821 5821 5823 5821
5754 5747 5747 5754 5755 5760 5761 5756 5761 5771 5776 5763 5771 5797 5822 5800 5788 5781 5784 5785 5785 5789 5794 5800 5806 5814 5822 5833 5846 5860 5850 5841 5835 5829 5827 5823 5820 5819 5816 5817 5819 5820 5819 5821
5740 5741 5737 5749 5763 5761 5753 5750 5760 5752 5750 5770 5769 5780 5812 5793 5789 5781 5775 5773 5775 5780 5784 5788 5795 5801 5806 5817 5835 5856 5852 5843 5839 5832 5823 5823 5819 5817 5817 5817 5819 5819 5818 5818
5728 5728 5720 5734 5748 5745 5731 5748 5752 5756 5758 5745 5741 5771 5802 5785 5776 5774 5762 5764 5765 5768 5772 5775 5780 5785 5792 5797 5809 5825 5844 5842 5839 5831 5824 5820 5818 5818 5818 5820 5818 5817 5817 5816
5705 5714 5709 5708 5728 5728 5721 5731 5739 5733 5725 5736 5746 5755 5773 5775 5762 5755 5751 5753 5754 5754 5759 5764 5765 5769 5776 5782 5787 5802 5822 5836 5835 5831 5824 5816 5818 5820 5821 5819 5817 5815 5815 5812
5700 5692 5702 5709 5715 5718 5713 5715 5719 5715 5722 5708 5730 5724 5737 5739 5740 5740 5740 5739 5738 5740 5742 5749 5753 5755 5761 5767 5770 5781 5799 5818 5825 5822 5823 5819 5817 5816 5816 5816 5816 5817 5813 5813
5699 5679 5683 5683 5697 5700 5694 5701 5704 5706 5705 5703 5710 5707 5728 5729 5731 5726 5722 5722 5723 5728 5731 5735 5735 5737 5745 5754 5758 5760 5773 5793 5803 5808 5813 5818 5814 5810 5809 5810 5813 5810 5809 5810
5681 5675 5669 5667 5688 5686 5669 5689 5693 5696 5699 5697 5690 5706 5708 5694 5695 5695 5697 5703 5707 5714 5719 5720 5721 5724 5730 5740 5747 5749 5754 5768 5786 5792 5801 5808 5811 5806 5802 5803 5804 5802 5804 5805
5664 5656 5657 5656 5664 5643 5685 5688 5682 5674 5681 5684 5682 5681 5677 5670 5674 5679 5679 5678 5690 5700 5705 5703 5709 5715 5720 5727 5732 5742 5743 5752 5765 5781 5786 5789 5797 5798 5794 5793 5796 5798 5802 5802
5667 5654 5651 5646 5654 5669 5672 5667 5651 5642 5647 5655 5654 5659 5656 5651 5652 5655 5669 5670 5668 5674 5680 5691 5699 5705 5712 5717 5722 5729 5736 5741 5753 5767 5771 5775 5780 5790 5785 5786 5788 5792 5792 5792
5657 5646 5634 5641 5627 5623 5658 5649 5645 5640 5624 5634 5634 5632 5631 5629 5622 5642 5651 5655 5657 5661 5667 5677 5687 5694 5700 5708 5717 5719 5728 5731 5745 5755 5767 5770 5772 5777 5759 5772 5783 5784 5781 5778
5639 5632 5632 5638 5634 5645 5640 5636 5637 5605 5615 5626 5620 5619 5619 5611 5615 5631 5633 5638 5644 5646 5653 5664 5669 5680 5682 5698 5709 5714 5723 5730 5738 5749 5756 5758 5764 5762 5762 5768 5771 5773 5774 5768
5628 5629 5636 5641 5634 5621 5628 5624 5606 5614 5621 5613 5608 5603 5603 5604 5612 5618 5618 5623 5632 5635 5636 5639 5650 5658 5668 5679 5689 5700 5712 5723 5729 5738 5747 5752 5755 5755 5757 5758 5758 5762 5761 5758
5617 5628 5620 5613 5621 5628 5627 5619 5617 5606 5596 5593 5590 5587 5589 5591 5595 5601 5602 5606 5617 5614 5611 5621 5628 5636 5647 5657 5666 5675 5695 5708 5718 5726 5728 5731 5739 5743 5747 5748 5745 5741 5748 5751
5630 5632 5615 5611 5620 5619 5619 5615 5604 5591 5582 5579 5574 5570 5575 5573 5577 5581 5584 5590 5587 5591 5592 5598 5604 5606 5620 5635 5649 5660 5677 5692 5701 5708 5714 5716 5721 5725 5729 5732 5730 5728 5730 5731
5627 5621 5610 5610 5614 5612 5613 5604 5592 5581 5571 5562 5557 5556 5554 5550 5558 5560 5552 5551 5555 5559 5565 5572 5575 5580 5594 5613 5631 5647 5664 5679 5688 5695 5698 5701 5708 5714 5715 5712 5711 5712 5709 5700
5630 5619 5609 5605 5612 5604 5601 5595 5582 5571 5557 5548 5544 5538 5531 5523 5520 5525 5525 5530 5531 5536 5546 5557 5559 5563 5572 5590 5614 5633 5650 5662 5677 5685 5689 5690 5696 5698 5704 5699 5694 5685 5685 5689